Regional Weather Roundup
Issued by NWS Charleston, SC

Current Version | Previous Version | Text Only | Print | Product List | Glossary Off
Versions: 1 2 3 4 5 6 7 8 9 10 11 12 13 14 15 16 17 18 19 20 21 22 23 24 25 26 27 28 29 30 31 32 33 34 35 36 37 38 39 40 41 42 43 44 45 46 47 48 49 50

695
ASUS42 KCHS 301812
RWRCHS

REGIONAL WEATHER ROUNDUP
NATIONAL WEATHER SERVICE CHARLESTON SC
200 PM EDT SUN APR 30 2017

NOTE: "FAIR" INDICATES FEW OR NO CLOUDS BELOW 12,000 FEET WITH NO
SIGNIFICANT WEATHER AND/OR OBSTRUCTIONS TO VISIBILITY.

NOT ALL STATIONS ARE QUALITY CONTROLLED. USE DATA WITH CAUTION...
ESPECIALLY DEWPOINT OBSERVATIONS.

SCZ027-030-031-034>040-042>050-301900-
...SOUTHEAST SOUTH CAROLINA...

CITY           SKY/WX    TMP DP  RH WIND       PRES   REMARKS
N CHARLESTON   PTSUNNY   85  68  56 S16G28    30.18F
6HR MIN TEMP:  73; 6HR MAX TEMP:  85;

WATERFRONT PRK   N/A     78  72  81 S15       30.17F
JOHNS ISLAND   CLOUDY    82  73  74 S16       30.19F
PINOPOLIS        N/A     82  70  65 VRB3      30.11F
MONCKS CORNER  MOCLDY    82  66  57 S12       30.17F
SUMMERVILLE    FAIR      84  68  58 SE9G18    30.18F
BEAUFORT MCAS  MOSUNNY   80  73  79 SE10G20   30.17F
6HR MIN TEMP:  73; 6HR MAX TEMP:  82; 6HR PCP:  0.22;

BEAUFORT ARPT  MOCLDY    81  70  69 S17G28    30.17F HAZE
HILTON HEAD IS MOSUNNY   82  73  74 S10       30.18F
WALTERBORO     MOCLDY    81  70  69 S12       30.17F
ALLENDALE      MOCLDY    81  70  69 SE12      30.13S

...SOUTHERN MIDLANDS AND PEE DEE...

CITY           SKY/WX    TMP DP  RH WIND       PRES   REMARKS
GEORGETOWN     MOCLDY    82  68  61 S17G23    30.21F
KINGSTREE      MOCLDY    84  64  51 S13G18    30.16F
ORANGEBURG     MOSUNNY   85  68  56 S10       30.14F
6HR MIN TEMP:  73; 6HR MAX TEMP:  86;

BARNWELL       MOCLDY    86  68  54 SE13      30.13S
AIKEN          FAIR      81  64  57 S9        30.17F
MANNING        MOCLDY    79  70  73 S22G28    30.16F
COLUMBIA       PTSUNNY   84  69  60 VRB3      30.13F
6HR MIN TEMP:  74; 6HR MAX TEMP:  87;

SUMTER         PTSUNNY   81  70  69 SE17      30.13F
6HR MIN TEMP:  73; 6HR MAX TEMP:  84; 6HR PCP:  0.04;

FLORENCE       PTSUNNY   86  66  51 S17       30.15F
6HR MIN TEMP:  70; 6HR MAX TEMP:  87;

MYRTLE BEACH   PTSUNNY   81  72  74 S17       30.21F
N MYRTLE BEACH MOSUNNY   80  71  74 S16       30.21F
6HR MIN TEMP:  75; 6HR MAX TEMP:  80;


$$

GAZ063-065-086>088-099>101-113>116-118-119-134>141-150-301900-
...SOUTHEAST GEORGIA...

CITY           SKY/WX    TMP DP  RH WIND       PRES   REMARKS
SAVANNAH ARPT  PTSUNNY   88  65  46 S21       30.15F HX  90
6HR MIN TEMP:  76; 6HR MAX TEMP:  89; 6HR PCP: TRACE;

HUNTER AAF     SUNNY     83  75  74 S15G23    30.13F HX  91
6HR MIN TEMP:  76; 6HR MAX TEMP:  84;

FORT STEWART   PTSUNNY   85  67  54 SE14G20   30.12R
6HR MIN TEMP:  72; 6HR MAX TEMP:  85; 6HR PCP: TRACE;

STATESBORO     LGT RAIN  82  71  68 S7        30.13S
SYLVANIA       MOCLDY   N/A N/A N/A S6        30.14S
CLAXTON        LGT RAIN  84  74  73 E8        30.12S HX  91

...CSRA...CENTRAL AND FAR SOUTHEAST GEORGIA...

CITY           SKY/WX    TMP DP  RH WIND       PRES   REMARKS
THOMSON        PTSUNNY   81  69  67 SW7       30.17S
AUGUSTA-BUSH   PTSUNNY   84  70  62 S8        30.11F
6HR MIN TEMP:  74; 6HR MAX TEMP:  87; 6HR PCP:  0.01;

AUGUSTA-DANIEL MOSUNNY   86  63  45 SE17      30.13F
SWAINSBORO     FAIR      84  68  58 SE12      30.13S
VIDALIA        PTSUNNY   88  66  48 S9        30.12S HX  90
EASTMAN        MOCLDY    88  47  23 SW6       30.13S
HAZLEHURST     FAIR      89  65  44 SW13      30.10R HX  90
ALMA           MOSUNNY   87  65  47 SE9       30.09F
6HR MIN TEMP:  72; 6HR MAX TEMP:  89;

WAYCROSS       PTSUNNY   91  69  48 S14       30.10S HX  95
JESUP          MOCLDY    88  64  45 S7        30.11S
BAXLEY         PTSUNNY   88  70  55 S10G18    30.10F HX  92
BRUNSWICK      SUNNY     82  72  69 SE15G26   30.14F
SAINT SIMONS   SUNNY     82  70  66 SE16G24   30.14F
6HR MIN TEMP:  76; 6HR MAX TEMP:  83;


$$

SCZ027-028-034-036>038-045-046-048>050-GAZ119-141-301900-
...LAKE AND SUPPLEMENTAL COASTAL OBSERVATIONS...

STATION/POSITION TIME  TEMP    WIND        PRES    WAVE   SWELL
                       AIR SEA DIR/SP/G            HT/PER HT/PER/DIR
                 (UTC) (F)     (DEG/KT/KT) (MB)    (FT/S) (FT/S/D)
WINYAH BAY       NOT AVBL
LAKE MURRAY      1720   78     200/  8/ 10 1020.3
ACE BASIN NERRS  1645   80     170/  3     1022.0
FORT PULASKI     1748   80 76  180/  6/ 11 1021.7F
SAPELO ISLAND    1700   83     160/ 13     1021.0

$$

ANZ835-935-AMZ111-154-330-350-352-354-370-450-454-472-301900-
...C-MAN AND BUOY OBSERVATIONS...

STATION/POSITION TIME  TEMP    WIND        PRES    WAVE   SWELL
                       AIR SEA DIR/SP/G            HT/PER HT/PER/DIR
                 (UTC) (F)     (DEG/KT/KT) (MB)    (FT/S) (FT/S/D)
BUOY 41004       1750   77 76  160/ 14/ 19 1022.6F   4/ 7   2/120/ 7
BUOY 41008       1650   75 74  160/ 10/ 12 1021.6    4/ 6   3/120/ 6
FOLLY BEACH CMAN 1700   76     160/ 12/ 14 1023.6R
CAPERS NEARSHORE 1708   78 75  180/ 12/ 17 1022.7R
FRIPP NEARSHORE  1708   76 74  160/ 10/ 12 1021.9F


STATION/POSITION TIME  TEMP    WIND        PRES    WAVE   SWELL
                       AIR SEA DIR/SP/G            HT/PER HT/PER/DIR
                 (UTC) (F)     (DEG/KT/KT) (MB)    (FT/S) (FT/S/D)
5E ST. MARYS GA  1730      76                N/A     4/ 6
FRYING PAN BUOY  1750   76 75  180/ 16/ 19 1023.4F   4/ 7   2/150/ 9
BUOY 41025       1750   77 75  220/ 16/ 19 1022.9F   3/ 4   2/140/ 7
CAPE LOOKOUT NC  1700   78     220/ 11/ 15 1022.9F
BUOY 41002       1750   74 76  160/ 12/ 14 1024.7F   3/ 8   3/ 70/ 8
BUOY 41010       1750   77 78  130/ 16/ 19 1022.0S   6/ 8   2/ 40/12
ST AUGUSTINE FL  1800   76 78  140/ 22/ 25 1020.9F


$$




USA.gov is the U.S. government's official web portal to all federal, state and local government web resources and services.